CAPE
400 327 240 291 401 181 183 92 30 6 107 128 100 135 121 22 180 352 320 218 283 395 250 1075 1189 1514 888 1071 1209 1583 1542 1648 1425 1356 780 623 531 980 1143 1269 1221 1052 1301
629 631 744 644 267 183 165 144 165 148 167 145 123 200 177 91 59 169 291 178 246 512 587 565 655 1266 1341 836 804 906 1086 1452 1532 1411 1151 1246 551 484 702 913 1172 1227 1231
735 845 955 1022 1001 806 358 171 91 188 216 346 214 468 250 191 284 169 112 141 261 437 566 247 198 605 1167 1280 1173 1003 855 874 1225 1114 1113 1234 1371 930 547 805 1104 1259 1355
985 966 895 896 923 777 674 464 329 313 364 384 509 314 202 134 150 233 234 152 120 188 392 446 362 345 592 744 650 1087 1245 1285 1039 1027 990 1044 1043 1215 1211 1158 1137 1199 1193
977 951 831 675 712 504 333 465 279 304 162 97 315 346 279 285 215 172 313 440 213 118 209 283 259 256 282 492 740 581 727 955 1210 890 768 1039 1018 1031 1010 1029 916 996 1024
1066 500 677 840 849 466 617 433 202 381 365 482 267 284 364 479 671 608 248 333 235 185 164 273 401 249 240 346 669 756 665 531 1084 895 881 1076 1107 1095 934 938 944 855 964
855 748 727 728 797 484 585 498 522 479 633 729 280 320 246 505 565 611 775 430 428 407 324 280 411 333 320 274 299 374 502 490 453 603 1004 1152 1314 1142 1065 935 899 825 846
1042 705 774 740 800 653 380 552 645 624 498 559 257 321 192 179 381 259 462 559 488 501 448 365 359 401 335 313 419 464 367 375 412 412 327 510 1082 1313 1129 976 952 796 844
830 959 846 795 540 559 520 600 570 393 299 406 90 50 142 68 45 96 132 441 573 594 415 242 317 417 445 318 206 317 259 227 242 348 437 392 333 629 1017 1137 927 699 676
837 1016 1015 439 241 214 179 257 454 488 335 154 179 155 81 89 14 54 15 195 644 701 597 307 228 274 437 515 408 249 304 355 294 276 261 460 353 330 566 917 1098 937 667
1137 824 481 170 174 98 97 199 43 60 159 79 65 88 115 176 166 68 103 135 169 214 542 463 182 286 508 416 386 538 400 256 219 199 249 263 335 378 370 451 722 969 1001
236 35 27 6 0 5 80 0 0 0 0 34 45 91 82 51 51 81 38 101 114 198 424 102 143 163 385 590 638 472 300 307 269 226 268 262 307 338 512 571 559 894 971
0 0 0 0 0 139 0 0 0 0 0 0 0 0 7 61 84 88 126 144 103 140 223 80 89 123 98 73 95 330 375 325 275 183 269 276 242 228 229 313 560 901 937
56 43 0 0 7 65 0 0 0 0 0 0 0 0 0 0 0 80 66 54 0 176 75 3 37 229 173 235 66 33 133 267 227 148 183 134 161 223 278 302 357 454 444
292 138 52 0 38 0 0 0 0 0 0 0 0 0 0 0 0 0 10 21 14 6 9 158 122 51 16 98 133 69 7 140 149 134 133 146 133 114 138 93 189 266 307
569 243 157 92 112 49 0 0 0 0 0 0 0 0 0 0 0 1 0 4 32 6 6 8 10 26 61 86 61 99 159 72 55 36 33 44 36 65 77 112 146 141 127
549 412 267 287 209 115 0 0 0 0 0 0 0 0 0 0 0 0 0 0 1 4 13 5 3 38 104 99 96 148 118 79 159 47 15 23 30 18 72 56 53 45 138
413 376 315 140 40 1 0 0 0 1 0 0 0 2 1 0 0 0 0 0 0 0 4 1 3 2 17 28 33 13 10 71 122 124 97 45 16 20 31 15 26 28 16
444 165 40 2 0 0 0 0 0 0 0 0 0 0 3 3 2 0 0 0 0 0 0 0 0 1 10 16 7 10 8 0 0 0 0 0 2 1 0 0 0 0 4
38 0 0 0 0 0 0 0 0 0 0 0 0 0 1 0 0 0 0 0 0 0 0 0 0 0 0 2 0 15 6 1 0 0 0 0 0 0 0 0 0 0 0
0 0 0 0 0 0 0 0 0 0 0 0 0 0 0 0 0 0 0 0 1 1 0 0 0 0 0 0 0 0 0 0 0 0 0 0 31 0 0 0 0 0 0
0 0 0 0 0 0 0 0 0 0 0 0 0 0 0 0 0 0 0 0 0 0 1 2 3 3 1 3 11 6 0 0 0 0 0 0 0 0 0 0 26 15 0
0 0 0 0 0 0 0 0 0 0 0 0 0 0 0 0 0 0 0 0 0 0 0 1 2 6 6 7 3 3 4 11 8 6 2 0 0 0 0 0 0 0 0
0 0 0 0 0 0 0 0 0 0 0 0 0 0 0 0 0 0 0 0 0 0 0 0 0 0 1 0 2 2 2 5 1 1 28 22 5 1 0 0 0 0 0
0 0 0 0 0 0 0 0 0 0 0 0 0 0 0 0 0 0 0 0 0 0 0 0 0 0 0 0 0 0 0 1 0 2 9 44 22 37 30 20 8 1 0
0 0 0 0 0 0 0 0 0 0 0 0 0 0 0 0 0 0 0 0 0 0 0 0 0 0 0 0 0 0 0 5 4 2 3 3 5 16 18 0 27 138 279
CIN
-57 -61 -70 -41 -45 -46 -40 -50 -59 -88 -36 -20 -34 -28 -38 -62 -23 -6 -3 -40 -40 -39 -45 -7 -4 0 -5 -3 -1 -1 -1 0 0 0 -21 -39 -39 -8 -3 -2 -2 -4 -1
-58 -60 -47 -47 -61 -67 -47 -43 -26 -29 -30 -45 -53 -21 -28 -55 -59 -28 -2 -8 -36 -28 -29 -27 -12 -1 0 -8 -11 -7 -2 -1 0 0 -7 -3 -43 -41 -20 -11 -4 -2 -1
-65 -54 -42 -33 -22 -26 -35 -32 -59 -37 -40 -28 -54 -14 -25 -33 -18 -38 -34 -29 -4 -26 -28 -33 -34 -13 -1 0 -1 -2 -7 -3 -3 -3 -4 -3 -1 -22 -40 -18 -6 -2 -2
-68 -56 -52 -38 -28 -26 -5 -8 -22 -19 -23 -21 -17 -47 -55 -65 -61 -29 -29 -38 -35 -13 -10 -29 -27 -27 -23 -11 -25 -9 -1 0 -4 -4 -4 -7 -10 -4 -7 -7 -6 -3 -4
-51 -53 -43 -45 -40 -32 -14 -4 -14 -14 -32 -51 -32 -44 -57 -65 -77 -60 -37 -24 -46 -37 -9 -15 -35 -36 -39 -19 -18 -17 -10 -1 -2 -5 -4 -4 -6 -9 -8 -13 -25 -18 -9
-48 -59 -44 -30 -28 -36 -10 -8 -17 -8 -10 -6 -60 -41 -45 -36 -15 -19 -64 -41 -66 -49 -44 -10 -9 -13 -35 -27 -14 -11 -13 -14 -1 -6 -20 -4 -5 -3 -11 -10 -11 -24 -23
-46 -44 -37 -33 -26 -36 -13 -11 -11 -10 0 0 -44 -26 -33 -27 -13 -3 -1 -29 -22 -23 -18 -15 -4 -2 -2 -31 -28 -21 -11 -15 -18 -14 -5 -1 0 -1 -6 -7 -9 -18 -23
-45 -47 -39 -29 -22 -12 -9 -3 -1 0 0 0 0 -3 -36 -35 -2 -10 -1 -1 -16 -7 -17 -31 -17 -7 -6 -3 -4 -25 -22 -20 -25 -25 -34 -20 -4 -1 -1 -2 -4 -11 -12
-54 -43 -43 -31 -21 -9 0 0 0 -1 -1 0 -6 -18 -10 -37 -44 -27 -20 -2 -2 -4 -32 -57 -29 -14 -11 -39 -31 -37 -25 -24 -26 -25 -41 -21 -28 -13 -2 -1 -3 -18 -25
-52 -36 -25 -28 -22 -11 -7 -5 -3 0 -1 -6 -1 -1 -2 0 -6 -32 -13 -11 -1 -1 -15 -44 -57 -42 -27 -15 -43 -41 -36 -39 -22 -17 -28 -20 -27 -26 -17 -3 -1 -1 -19
-37 -34 -31 -32 -17 -35 -38 -19 -85 -68 -15 -54 -51 -20 -1 0 0 -5 -8 -5 -7 -11 -3 -13 -52 -30 -20 -41 -34 -20 -44 -60 -42 -25 -20 -19 -29 -21 -51 -17 -2 -1 0
-68 -64 -64 -32 0 -62 -62 0 0 0 0 -62 -51 -46 -47 -34 -20 -13 -53 -7 -1 -1 -1 -58 -50 -48 -21 -15 -18 -37 -63 -56 -47 -35 -27 -38 -18 -21 -8 -7 -6 -1 -1
-15 0 0 0 0 -31 0 0 0 0 0 0 0 0 -23 -73 -45 -20 -1 0 -1 -5 -3 -27 -55 -70 -73 -67 -55 -25 -36 -52 -55 -52 -42 -24 -20 -17 -10 -16 -2 0 0
-91 -100 0 0 -97 -46 0 0 0 0 0 0 0 0 -1 -1 -1 -39 -32 -20 0 0 -21 -27 -32 -24 -13 -8 -40 -52 -15 -23 -28 -29 -26 -22 -19 -16 -26 -20 -6 -3 -2
-57 -88 -116 0 -69 0 0 0 0 0 0 0 0 0 0 0 -1 -1 -1 0 -1 0 0 0 -1 -12 -9 -7 -10 -7 -41 -10 -14 -21 -20 -19 -16 -24 -28 -33 -22 -13 -52
-34 -60 -68 -72 -39 -34 0 0 0 0 0 0 0 0 0 0 0 0 0 -1 0 -1 0 -1 -1 -54 -25 -15 -12 -11 -7 -26 -73 -47 -52 -43 -28 -29 -29 -12 -12 -9 -18
-34 -32 -27 -16 -10 -24 0 0 0 0 0 0 0 0 0 0 0 0 0 0 -1 0 0 0 0 -25 -54 -49 -37 -18 -31 -30 -22 -67 -38 -34 -23 -20 -12 -18 -12 -13 -3
-46 -33 -33 -39 -55 -2 0 0 0 0 0 0 0 0 0 0 0 0 0 0 0 0 0 -1 0 0 0 0 0 -3 -3 -56 -45 -61 -90 -164 -42 -39 -27 -25 -29 -31 -48
-33 -64 -108 -101 0 0 0 0 0 0 0 0 0 0 0 0 0 0 0 0 0 0 0 0 0 0 -1 -1 -1 -1 0 0 0 0 0 0 -303 -61 0 0 0 0 -27
-80 0 0 0 0 0 0 0 0 0 0 0 0 0 0 0 0 0 0 0 0 0 0 0 0 0 -1 -1 -1 -1 -1 -1 0 0 0 0 0 0 0 0 0 0 0
0 0 0 0 0 0 0 0 0 0 0 0 0 0 0 0 0 0 0 0 -1 -1 0 0 0 0 0 0 0 -1 0 0 0 0 0 0 -23 -1 0 0 0 0 0
0 0 0 0 0 0 0 0 0 0 0 0 0 0 0 0 0 0 0 0 0 0 0 0 0 0 0 0 -1 -1 -1 0 0 0 0 0 0 0 0 0 -7 -38 0
0 0 0 0 0 0 0 0 0 0 0 0 0 0 0 0 0 0 0 0 0 0 0 0 0 0 0 0 0 0 0 0 -1 -1 -1 0 0 0 0 0 0 0 0
0 0 0 0 0 0 0 0 0 0 0 0 0 0 0 0 0 0 0 0 0 0 0 0 0 0 -1 -1 0 0 0 0 -1 -2 -2 0 -3 -1 0 0 0 0 0
0 0 0 0 0 0 0 0 0 0 0 0 0 0 0 0 0 0 0 0 0 0 0 0 0 0 0 0 0 0 0 0 0 0 -6 -1 -1 -1 -2 -1 -1 -1 0
0 0 0 0 0 0 0 0 0 0 0 0 0 0 0 0 0 0 0 0 0 0 0 0 0 0 0 0 0 0 0 0 0 0 -9 -1 -2 -2 -1 -1 -2 -9 -2
Wind_Speed
14 12 13 18 14 12 11 8 12 15 13 12 12 13 13 5 9 11 17 16 16 16 15 17 19 18 14 14 16 17 18 19 19 19 19 18 5 18 13 11 9 8 4
15 15 13 13 18 20 24 22 6 17 12 9 13 14 13 8 12 14 13 17 15 15 16 17 16 19 18 18 19 17 18 19 20 20 21 19 13 3 10 17 12 10 8
12 12 13 11 13 17 5 2 17 11 11 3 6 5 8 11 11 12 11 14 13 14 17 16 18 19 20 16 20 22 20 22 22 21 21 22 20 18 18 5 18 16 9
10 7 4 12 20 15 9 5 5 11 11 4 4 2 2 3 5 11 14 12 17 15 15 19 19 20 19 21 17 25 27 23 23 24 24 21 22 23 23 25 24 8 12
13 11 15 20 22 19 15 9 9 7 6 6 7 5 3 3 7 12 12 15 15 15 16 13 19 20 21 21 19 28 26 28 25 23 24 22 22 23 24 21 21 21 21
9 10 15 20 20 19 16 14 12 10 9 9 11 7 4 1 7 9 11 14 11 12 16 15 11 17 21 22 22 24 26 23 26 25 23 23 21 22 22 23 22 20 18
10 12 17 18 18 19 18 18 18 17 12 13 12 11 4 2 2 4 6 9 13 10 10 13 11 12 11 21 24 26 23 23 22 25 24 23 22 23 21 22 24 24 23
10 10 11 13 15 17 18 21 20 21 15 13 11 7 18 15 10 12 4 3 6 12 6 8 9 11 13 13 15 23 25 23 24 25 23 23 23 22 23 23 21 23 25
11 11 13 12 12 10 11 12 20 19 21 14 12 10 17 18 3 3 4 3 1 3 5 5 7 11 10 10 18 17 21 24 24 23 24 21 24 26 27 24 24 23 23
12 13 14 16 15 15 18 15 8 12 15 16 7 9 4 2 20 19 12 11 8 3 0 2 8 10 7 8 7 13 15 19 22 23 25 20 22 22 23 24 24 24 25
15 16 17 18 20 21 21 21 21 21 14 13 9 6 4 4 7 22 14 20 8 6 8 13 11 14 14 10 16 17 10 16 13 15 19 29 27 22 23 22 22 23 26
16 17 18 19 20 21 20 21 21 23 23 21 19 13 9 15 20 22 21 16 8 5 4 3 13 9 16 16 18 20 15 12 13 12 14 20 17 19 22 25 27 25 29
14 16 18 20 20 20 20 21 23 24 24 24 24 25 25 26 22 19 21 24 20 16 14 5 11 8 3 9 19 22 20 15 14 14 12 12 14 15 16 25 26 22 26
14 16 18 19 20 19 20 21 23 24 25 25 26 26 25 25 25 24 21 21 21 19 19 14 11 6 7 7 6 6 11 24 15 13 16 14 16 19 21 27 17 25 29
14 15 17 19 20 20 20 22 23 25 26 27 27 27 26 25 25 25 24 23 22 21 22 19 19 19 20 22 13 8 6 6 17 21 16 21 24 23 24 20 19 21 21
14 15 18 19 21 21 22 23 24 25 26 27 27 27 26 26 26 26 26 25 22 21 20 23 24 26 27 26 24 24 2 6 7 11 12 17 12 23 21 23 18 16 20
14 16 18 21 22 23 23 24 25 26 27 27 26 26 26 27 27 27 27 26 26 25 23 24 25 27 27 28 28 27 27 26 23 12 11 9 12 14 18 21 24 19 19
15 17 17 20 22 23 24 25 26 26 26 26 26 27 27 28 28 28 27 28 27 26 27 29 28 28 29 29 29 30 28 27 26 26 23 21 16 12 11 19 17 23 20
16 18 18 20 22 24 24 24 25 24 25 26 27 27 28 29 30 30 29 30 30 29 28 29 31 28 30 30 32 30 29 29 27 28 27 25 22 17 13 14 13 14 17
16 18 20 22 23 24 24 23 23 24 24 25 27 27 27 29 30 31 30 30 30 31 31 31 31 31 31 32 32 33 34 32 33 33 31 28 28 27 25 22 18 13 15
16 17 19 21 23 23 23 22 23 24 25 25 26 27 27 29 30 30 31 31 31 31 31 32 32 32 33 34 35 35 37 37 37 34 30 29 28 31 31 27 24 21 16
15 17 19 21 22 22 22 22 21 22 24 25 26 27 27 29 30 31 31 30 30 31 31 31 31 33 33 35 34 35 37 38 39 34 35 39 36 35 32 30 28 25 24
14 17 19 21 22 22 22 22 22 22 23 25 26 27 28 29 31 31 32 31 30 30 31 32 33 35 36 36 36 36 36 37 39 38 39 43 37 40 36 32 29 28 27
14 17 19 20 20 20 21 21 21 22 24 25 26 28 29 30 31 32 32 32 33 34 34 33 34 35 36 37 37 37 38 34 32 32 33 41 37 38 37 36 33 32 31
14 16 17 17 17 18 20 21 21 22 24 25 26 27 29 30 32 33 32 33 34 35 34 36 36 36 36 36 37 37 38 40 40 37 33 34 36 38 38 37 34 31 30
14 15 15 15 16 17 19 21 21 22 23 24 25 26 28 30 32 32 32 34 36 37 37 37 37 36 37 37 36 36 38 41 41 39 33 40 41 41 40 37 32 31 26
Wind_Direction
195 190 199 231 214 204 203 190 208 211 196 187 189 196 200 194 203 196 203 196 194 193 187 188 186 179 168 165 168 167 166 167 164 161 153 136 290 244 259 268 279 286 324
212 215 209 213 239 337 318 301 204 226 195 180 199 205 205 192 200 202 196 199 194 194 197 194 186 186 182 182 180 175 175 173 172 169 170 158 132 92 277 254 274 281 293
200 208 212 213 6 354 35 76 221 201 187 104 187 195 195 203 201 203 205 201 196 199 200 198 194 190 190 185 188 190 184 187 184 179 175 174 167 160 161 279 267 271 294
190 157 106 16 352 2 12 18 45 7 357 45 29 15 202 219 213 209 206 202 205 206 201 203 197 196 195 196 193 199 199 193 190 189 185 179 179 179 178 182 181 177 285
9 27 9 356 349 2 14 32 32 69 131 34 13 20 357 249 227 212 208 205 202 204 201 199 200 199 201 200 201 207 202 203 198 192 191 186 184 184 186 181 181 181 180
54 52 25 2 3 7 19 18 18 26 27 30 16 17 10 258 215 217 218 208 207 205 203 200 195 200 203 203 204 205 204 201 202 199 196 193 189 189 188 188 187 184 183
75 46 21 20 17 11 4 351 351 355 27 21 18 20 23 25 218 234 224 214 208 207 198 197 198 197 198 205 209 208 203 202 204 205 201 199 197 196 194 193 194 194 192
99 85 69 56 40 24 9 330 338 340 11 26 30 36 9 15 23 353 337 213 214 200 225 200 200 200 200 200 200 205 207 205 203 204 204 204 203 203 201 200 199 198 199
94 84 67 70 67 80 74 234 344 358 346 27 46 43 23 21 360 67 75 71 47 197 201 268 218 206 208 210 206 207 207 208 208 207 208 209 208 207 206 206 205 205 203
65 59 50 47 58 68 38 275 165 78 45 30 108 89 153 142 21 17 37 38 11 64 149 322 304 290 242 269 246 212 209 208 211 213 214 215 214 210 209 209 211 210 209
42 29 28 32 24 7 13 358 336 338 68 69 84 94 148 194 86 19 35 2 66 67 350 323 333 314 299 294 298 300 267 219 231 230 222 216 216 216 214 215 216 215 213
31 27 21 17 14 12 5 353 347 349 3 14 23 39 40 40 23 19 23 34 60 65 34 328 272 333 307 305 304 301 301 283 266 257 265 225 229 225 217 216 216 215 214
24 17 15 8 7 17 15 8 5 1 358 358 349 338 343 349 11 25 14 360 14 26 27 91 190 195 263 302 306 302 300 293 286 285 273 245 240 255 237 220 218 221 216
27 7 0 356 349 3 5 3 2 357 355 353 348 344 347 353 353 357 10 10 11 15 19 31 30 54 5 197 225 274 304 294 281 291 289 285 278 279 276 279 244 219 217
41 12 347 347 345 356 357 358 355 350 348 342 343 346 351 354 354 352 353 0 360 360 357 5 357 353 346 333 345 214 226 251 297 295 299 296 291 287 283 277 273 264 263
51 23 340 330 335 343 343 343 343 340 340 344 344 344 346 346 347 348 349 353 358 356 350 340 336 330 327 329 333 328 331 216 295 227 292 295 270 284 287 284 275 258 252
34 20 353 336 330 330 337 337 338 335 338 347 348 346 347 347 345 343 343 344 345 347 345 340 336 328 326 323 321 324 322 317 316 323 311 296 295 288 284 282 286 278 265
7 1 0 352 347 346 344 341 338 338 339 340 341 341 341 343 343 345 343 341 343 345 338 329 330 328 324 322 322 318 318 320 318 313 316 316 314 300 275 287 279 281 262
3 355 353 350 349 348 348 347 347 346 347 344 341 341 342 341 338 339 340 336 335 334 334 330 325 329 324 323 318 321 321 320 321 316 315 315 316 314 300 291 277 276 260
13 3 359 356 354 348 345 350 350 352 352 349 346 347 348 347 344 341 341 340 337 331 329 327 325 324 323 321 318 315 311 314 313 313 312 314 311 310 308 306 296 275 243
8 10 8 3 3 8 1 351 350 349 350 351 352 350 350 348 347 347 343 341 339 337 334 329 326 325 323 320 317 314 309 310 308 312 312 314 314 308 305 306 304 301 290
8 12 8 4 4 8 10 9 7 1 359 357 355 354 355 354 352 350 348 347 345 341 339 337 333 328 327 324 323 318 313 309 306 312 307 302 304 303 305 304 301 299 296
16 11 7 5 6 11 11 12 13 13 12 10 8 5 2 0 358 356 354 353 351 348 345 339 333 329 325 325 324 321 317 313 308 308 307 299 305 296 300 302 302 298 296
18 14 9 9 14 16 19 23 24 19 15 12 8 5 3 0 358 356 356 355 354 351 346 342 336 330 327 322 322 321 317 320 319 318 314 302 306 302 301 298 299 297 295
19 14 15 19 25 25 22 22 22 18 14 11 9 6 3 1 356 354 354 353 352 351 350 344 339 336 333 328 324 321 317 316 314 315 316 311 307 305 303 301 300 299 297
18 18 24 28 28 25 19 17 15 15 11 8 8 6 6 2 359 359 356 351 347 346 346 344 344 344 340 336 333 328 322 315 312 312 315 311 306 305 301 300 299 301 302